Location: Bluff Heights
(33.7692°N, 118.1592°W)
Time: 09:43:57
(UTC+00:00)

Altair - All Passes

Search period start: 31 July 2021 00:00
Search period end: 10 August 2021 00:00
Orbit: 1502 x 1682 km, 47.2° (Epoch: 30 July)

Date Brightness Start Highest point End Pass type
(mag) Time Alt. Az. Time Alt. Az. Time Alt. Az.
31 Jul - 06:11:49 10° SE 06:12:43 10° ESE 06:13:37 10° ESE visible
31 Jul - 08:06:51 10° SSW 08:16:05 53° SE 08:25:01 10° ENE visible
31 Jul - 10:11:31 10° WSW 10:20:48 57° NNW 10:29:51 10° NE visible
31 Jul - 12:18:51 10° WNW 12:27:10 35° N 12:35:22 10° ENE visible
31 Jul - 14:24:58 10° NW 14:33:46 48° NNE 14:42:36 10° E daylight
31 Jul - 16:29:45 10° WNW 16:38:51 70° SW 16:48:06 10° SE daylight
31 Jul - 18:37:11 10° W 18:42:22 16° SW 18:47:39 10° SSW daylight
01 Aug - 07:41:50 10° SSW 07:50:58 49° SE 07:59:46 10° ENE visible
01 Aug - 09:46:12 10° WSW 09:55:33 61° NNW 10:04:41 10° NE visible
01 Aug - 11:53:29 10° WNW 12:01:50 35° N 12:10:04 10° ENE visible
01 Aug - 13:59:46 10° NW 14:08:30 45° NNE 14:17:15 10° E daylight
01 Aug - 16:04:33 10° NW 16:13:43 75° SW 16:22:59 10° SE daylight
01 Aug - 18:11:29 10° W 18:17:19 19° SW 18:23:15 10° SSW daylight
02 Aug - 07:16:52 10° SSW 07:25:51 44° SE 07:34:31 10° ENE visible
02 Aug - 09:20:53 10° WSW 09:30:20 65° NNW 09:39:31 10° NE visible
02 Aug - 11:28:06 10° WNW 11:36:30 36° N 11:44:47 10° ENE visible
02 Aug - 13:34:33 10° NW 13:43:14 44° NNE 13:51:53 10° E daylight
02 Aug - 15:39:22 10° NW 15:48:33 81° SW 15:57:51 10° SE daylight
02 Aug - 17:45:52 10° W 17:52:16 21° SW 17:58:45 10° S daylight
03 Aug - 06:51:56 10° SSW 07:00:44 40° SE 07:09:15 10° ENE visible
03 Aug - 08:55:34 10° WSW 09:05:07 69° NNW 09:14:22 10° NE visible
03 Aug - 11:02:42 10° WNW 11:11:11 37° N 11:19:31 10° ENE visible
03 Aug - 13:09:19 10° NW 13:17:57 42° NNE 13:26:31 10° E daylight
03 Aug - 15:14:12 10° NW 15:23:24 87° SW 15:32:42 10° SE daylight
03 Aug - 17:20:21 10° WNW 17:27:12 24° SW 17:34:09 10° S daylight
04 Aug - 06:27:02 10° SSW 06:35:38 37° SE 06:43:57 10° ENE visible
04 Aug - 08:30:17 10° WSW 08:39:54 73° NNW 08:49:12 10° NE visible
04 Aug - 10:37:18 10° WNW 10:45:52 38° N 10:54:16 10° NE visible
04 Aug - 12:44:04 10° NW 12:52:39 40° NNE 13:01:10 10° E daylight
04 Aug - 14:49:01 10° NW 14:58:15 87° NE 15:07:32 10° SE daylight
04 Aug - 16:54:54 10° WNW 17:02:08 27° SW 17:09:28 10° S daylight
05 Aug - 06:02:09 10° S 06:10:31 33° SE 06:18:37 10° ENE visible
05 Aug - 08:05:01 10° WSW 08:14:42 78° NW 08:24:03 10° NE visible
05 Aug - 10:11:54 10° W 10:20:33 39° NNW 10:29:01 10° NE visible
05 Aug - 12:18:49 10° NW 12:27:21 39° NNE 12:35:48 10° E visible
05 Aug - 14:23:51 10° NW 14:33:05 82° NE 14:42:20 10° ESE daylight
05 Aug - 16:29:30 10° WNW 16:37:04 30° SW 16:44:43 10° S daylight
06 Aug - 05:37:20 10° S 05:45:25 30° SE 05:53:15 10° ENE visible
06 Aug - 07:39:46 10° SW 07:49:30 84° NW 07:58:53 10° NE visible
06 Aug - 09:46:29 10° W 09:55:14 40° NNW 10:03:47 10° NE visible
06 Aug - 11:53:32 10° NW 12:02:03 38° NNE 12:10:25 10° ENE visible
06 Aug - 13:58:41 10° NW 14:07:54 76° NE 14:17:07 10° ESE daylight
06 Aug - 16:04:08 10° WNW 16:11:59 33° SW 16:19:56 10° S daylight
07 Aug - 05:12:35 10° S 05:20:19 27° SE 05:27:51 10° ENE visible
07 Aug - 07:14:32 10° SW 07:24:18 89° NW 07:33:44 10° NE visible
07 Aug - 09:21:04 10° W 09:29:56 41° NNW 09:38:34 10° NE visible
07 Aug - 11:28:15 10° NW 11:36:44 37° N 11:45:05 10° ENE visible
07 Aug - 13:33:30 10° NW 13:42:43 72° NNE 13:51:53 10° ESE daylight
07 Aug - 15:38:48 10° WNW 15:46:54 37° SW 15:55:06 10° SSE daylight
08 Aug - 04:47:53 10° S 04:55:14 24° SE 05:02:23 10° ENE visible
08 Aug - 06:49:20 10° SW 06:59:08 85° SE 07:08:34 10° NE visible
08 Aug - 08:55:39 10° W 09:04:38 43° NNW 09:13:21 10° NE visible
08 Aug - 11:02:57 10° WNW 11:11:25 36° N 11:19:43 10° ENE visible
08 Aug - 13:08:19 10° NW 13:17:31 67° NNE 13:26:38 10° ESE daylight
08 Aug - 15:13:29 10° WNW 15:21:49 41° SW 15:30:13 10° SSE daylight
09 Aug - 04:23:15 10° S 04:30:09 22° SE 04:36:51 10° E visible
09 Aug - 06:24:09 10° SW 06:33:57 80° SE 06:43:24 10° NE visible
09 Aug - 08:30:15 10° W 08:39:20 45° NNW 08:48:10 10° NE visible
09 Aug - 10:37:37 10° WNW 10:46:05 36° N 10:54:22 10° ENE visible
09 Aug - 12:43:08 10° NW 12:52:18 63° NNE 13:01:23 10° ESE visible
09 Aug - 14:48:13 10° WNW 14:56:44 45° SW 15:05:18 10° SSE daylight
